Weather History for Saipan, MP

Change the Weather History Date:

Tuesday, October 9, 2012

  Actual Average Record
Temperature  
Mean Temperature 82 °F -  
Max Temperature 86 °F 84 °F 88 °F (2008)
Min Temperature 78 °F 76 °F 75 °F (2005)
Cooling Degree Days 17    
Growing Degree Days 32 (Base 50)    
Moisture  
Dew Point 75 °F    
Average Humidity 82    
Maximum Humidity 90    
Minimum Humidity 70    
Precipitation  
Precipitation 0.64 in - - ()
Sea Level Pressure  
Sea Level Pressure 29.81 in    
Wind  
Wind Speed 5 mph (SSE)    
Max Wind Speed 10 mph    
Max Gust Speed -    
Visibility 10 miles    
Events Rain    
Averages and records for this station are not official NWS values.
T = Trace of Precipitation, MM = Missing Value Source: NWS Daily Summary

Daily Weather History Graph

Daily Weather History Graph

Search for Another Location

Airport:

Trip Planner

Search our weather history database for the weather conditions in past years. The results will help you decide how hot, cold, wet, or windy it might be!

Date:

Astronomy

Oct. 09, 2012 Rise Set
Actual Time 6:07 AM ChST 6:00 PM ChST
Civil Twilight 5:46 AM ChST 6:22 PM ChST
Nautical Twilight 5:21 AM ChST 6:47 PM ChST
Astronomical Twilight 4:56 AM ChST 7:12 PM ChST
Moon 12:05 AM ChST (10/9) 1:08 PM ChST (10/9)
Length of Visible Light 12h 35m
Length of Day
11h 52m
Last Quarter, 42% of the Moon is Illuminated
Oct 9
Last Quarter
Oct 15
New
Oct 22
First Quarter
Oct 30
Full
Nov 7
Last Quarter

Hourly Weather History & Observations

Time (ChST) Temp. Heat Index Dew Point Humidity Pressure Visibility Wind Dir Wind Speed Gust Speed Precip Events Conditions
12:01 AM 80.6 °F 87.1 °F 77.0 °F 89% 29.77 in 10.0 mi Calm Calm - 0.00 in Rain Light Rain
12:18 AM 80.6 °F 87.1 °F 77.0 °F 89% 29.77 in 10.0 mi SE 5.8 mph - 0.00 in   Mostly Cloudy
12:54 AM 81.0 °F 87.3 °F 75.9 °F 85% 29.83 in 10.0 mi SE 5.8 mph - 0.00 in   Mostly Cloudy
1:10 AM 80.6 °F 87.1 °F 77.0 °F 89% 29.76 in 10.0 mi SE 4.6 mph - N/A   Mostly Cloudy
1:38 AM 78.8 °F - 75.2 °F 89% 29.76 in 10.0 mi SE 4.6 mph - 0.01 in Rain Light Rain
1:54 AM 80.1 °F 85.4 °F 75.9 °F 87% 29.81 in 10.0 mi ESE 4.6 mph - 0.05 in Rain Heavy Rain
2:31 AM 80.6 °F 86.2 °F 75.2 °F 84% 29.74 in 10.0 mi East 4.6 mph - 0.01 in   Mostly Cloudy
2:54 AM 80.1 °F 84.5 °F 73.9 °F 81% 29.81 in 10.0 mi ENE 5.8 mph - 0.01 in   Scattered Clouds
3:54 AM 81.0 °F 87.3 °F 75.9 °F 85% 29.80 in 10.0 mi SSE 4.6 mph - N/A   Scattered Clouds
4:54 AM 78.1 °F - 75.0 °F 90% 29.81 in 4.0 mi SSE 5.8 mph - 0.43 in Rain Rain
5:54 AM 78.1 °F - 75.0 °F 90% 29.83 in 6.0 mi SE 8.1 mph - 0.14 in Rain Heavy Rain
6:54 AM 78.1 °F - 73.9 °F 87% 29.83 in 10.0 mi SSE 9.2 mph - 0.00 in   Partly Cloudy
7:54 AM 80.1 °F 85.1 °F 75.0 °F 85% 29.85 in 10.0 mi SE 8.1 mph - 0.00 in Rain Light Rain
8:54 AM 82.9 °F 90.8 °F 75.9 °F 79% 29.85 in 10.0 mi SSE 8.1 mph - 0.00 in   Partly Cloudy
9:54 AM 84.9 °F 94.1 °F 75.9 °F 74% 29.85 in 10.0 mi SE 9.2 mph - N/A   Scattered Clouds
10:54 AM 86.0 °F 96.9 °F 77.0 °F 74% 29.83 in 10.0 mi SE 8.1 mph - N/A   Scattered Clouds
11:54 AM 84.9 °F 94.1 °F 75.9 °F 74% 29.82 in 10.0 mi East 5.8 mph - 0.00 in   Scattered Clouds
12:54 PM 86.0 °F 95.1 °F 75.0 °F 70% 29.80 in 10.0 mi ESE 9.2 mph - N/A   Scattered Clouds
1:54 PM 84.9 °F 93.3 °F 75.0 °F 72% 29.77 in 10.0 mi SE 5.8 mph - N/A   Scattered Clouds
2:54 PM 86.0 °F 95.1 °F 75.0 °F 70% 29.76 in 10.0 mi South 4.6 mph - N/A   Scattered Clouds
3:54 PM 84.9 °F 93.3 °F 75.0 °F 72% 29.77 in 10.0 mi SSE 6.9 mph - N/A   Mostly Cloudy
4:54 PM 82.9 °F 90.8 °F 75.9 °F 79% 29.79 in 10.0 mi SSE 6.9 mph - N/A   Scattered Clouds
5:54 PM 82.0 °F 88.6 °F 75.0 °F 79% 29.80 in 10.0 mi South 6.9 mph - N/A   Overcast
6:54 PM 81.0 °F 86.7 °F 75.0 °F 82% 29.81 in 10.0 mi SE 5.8 mph - N/A   Mostly Cloudy
7:42 PM 82.4 °F 88.2 °F 73.4 °F 74% 29.76 in 10.0 mi South 10.4 mph - 0.00 in Rain Light Rain
7:54 PM 81.0 °F 86.7 °F 75.0 °F 82% 29.83 in 8.0 mi South 9.2 mph - 0.00 in Rain Light Rain
8:28 PM 80.6 °F 86.2 °F 75.2 °F 84% 29.77 in 10.0 mi SW 6.9 mph - 0.00 in Rain Light Rain
8:54 PM 79.0 °F - 73.9 °F 84% 29.85 in 10.0 mi SW 6.9 mph - 0.01 in Rain Light Rain
9:29 PM 78.8 °F - 75.2 °F 89% 29.79 in 10.0 mi South 6.9 mph - 0.00 in   Overcast
9:54 PM 80.1 °F 85.1 °F 75.0 °F 85% 29.86 in 10.0 mi SSW 5.8 mph - 0.00 in   Overcast
10:54 PM 79.0 °F - 75.0 °F 88% 29.86 in 10.0 mi SSW 9.2 mph - 0.00 in   Overcast
11:54 PM 79.0 °F - 73.9 °F 84% 29.84 in 10.0 mi SSW 6.9 mph - 0.00 in Rain Light Rain